Weather Roundup
Issued by NWS

Home | Current Version | Previous Version | Graphics & Text | Print | Product List | Glossary Off
Versions: 1 2 3 4 5 6 7 8 9 10 11 12 13 14 15 16 17 18 19 20 21 22 23 24 25 26 27 28 29 30 31 32 33 34 35 36 37 38 39 40 41 42 43 44 45 46 47 48 49 50

869
NZUS93 KARX 270559
HRRWXR

CURRENT HOURLY OBSERVATIONS ACROSS
MUCH OF THE UPPER MISSISSIPPI VALLEY
NATIONAL WEATHER SERVICE LA CROSSE WI
1200 AM CST MON FEB 27 2017


...SOUTHEAST MINNESOTA...


CITY           SKY/WX    TMP DP  RH WIND       PRES   REMARKS
ROCHESTER      CLEAR     15  14  95 S9        29.96S WCI   3
ROCHESTER/MAYO FAIR      20  19  95 SE7       29.97F WCI  11
WINONA         CLEAR     28  23  80 SW3       30.02S
AUSTIN         CLEAR     16  12  86 CALM      29.98S
ALBERT LEA     CLEAR     23  19  86 SW6       29.97S WCI  16
DODGE CENTER   NOT AVBL
PRESTON        CLEAR     20  18  91 SW10      29.99S WCI   9
OWATONNA       CLEAR     21  18  86 S5        29.96S WCI  15
FARIBAULT      PTCLDY    21  19  93 S6        29.96S WCI  14
$$

...ELSEWHERE IN MINNESOTA...


CITY           SKY/WX    TMP DP  RH WIND       PRES   REMARKS
MINNEAPOLIS    CLOUDY    30  16  56 S6        29.96R WCI  24
INTNL FALLS    CLEAR      8   2  76 SW3       29.88R
DULUTH         CLEAR      6  -2  69 SW3       29.89S
RED WING       MOCLDY    28  21  74 CALM      29.98R
REDWOOD FALLS  CLEAR     26  22  84 S6        29.91S WCI  19
MANKATO          N/A     24  21  88 S7        29.96  WCI  16
WORTHINGTON    CLEAR     27  23  85 SW15      29.92S WCI  15
FAIRMONT       CLEAR     18  15  88 S12       29.96S WCI   5
$$

...SOUTHWEST WISCONSIN...


CITY           SKY/WX    TMP DP  RH WIND       PRES   REMARKS
LA CROSSE      CLEAR     29  22  75 S8        30.02R WCI  21
PRAIRIE DU CHI CLEAR     27  22  83 CALM      30.04R
BOSCOBEL       CLEAR     24  22  91 CALM      30.05R
LONE ROCK      NOT AVBL
PLATTEVILLE    CLEAR     29  26  86 SW3       30.03R
FORT MC COY    CLEAR     21  19  94 E5        30.02S WCI  14
MAUSTON-NEW LI CLEAR     27  22  83 CALM      30.00R
VIROQUA        FAIR      25  23  93 SW5       30.00R WCI  19
WIS DELLS      CLEAR     28  22  78 SW5       30.01R WCI  23
$$

...ELSEWHERE IN WISCONSIN...


CITY           SKY/WX    TMP DP  RH WIND       PRES   REMARKS
MILWAUKEE      PTCLDY    35  23  61 W7        30.04R WCI  29
MADISON        CLEAR     28  22  78 CALM      30.03R
GREEN BAY      CLEAR     30  22  72 W8        29.99R WCI  22
EAU CLAIRE     NOT AVBL
BLACK RVR FLS  FAIR      25  23  94 S3        30.00S
MEDFORD        CLEAR     13   9  86 S3        29.94R
WAUSAU         CLEAR     23  13  65 CALM      29.96R
WIS RAPIDS     CLEAR     27  22  81 W6        30.00R WCI  20
MARSHFIELD     MOCLDY    23  19  85 W7        29.96R WCI  15
RICE LAKE      CLOUDY    24  15  69 CALM      29.97R
$$

...NORTHEAST IOWA...


CITY           SKY/WX    TMP DP  RH WIND       PRES   REMARKS
WATERLOO       CLEAR     23  20  88 CALM      30.03R
DUBUQUE        CLEAR     26  22  84 SW6       30.04R WCI  19
DECORAH        CLEAR     25  21  86 S3        30.01R
MASON CITY     CLEAR     15  13  91 S6        30.00S WCI   6
CHARLES CITY   CLEAR     21  23 100 CALM      30.01S
OELWEIN        CLEAR     25  25 100 S5        30.03R WCI  19
$$

...ELSEWHERE IN IOWA...


CITY           SKY/WX    TMP DP  RH WIND       PRES   REMARKS
DES MOINES     MOCLDY    32  21  64 SE6       30.03S WCI  26
IOWA CITY      PTCLDY    31  24  75 CALM      30.07S
FORT DODGE     PTCLDY    18  12  79 S3        30.00S
MARSHALLTOWN   CLEAR     26  24  92 SE6       30.03R WCI  19
CEDAR RAPIDS   MOCLDY    29  26  89 CALM      30.04S
$$

...NORTHERN ILLINOIS...


CITY           SKY/WX    TMP DP  RH WIND       PRES   REMARKS
CHICAGO-OHARE  PTCLDY    38  25  59 SW7       30.05S WCI  33
CHICAGO-MIDWAY PTCLDY    38  24  57 SW8       30.07S WCI  32
MOLINE         PTCLDY    31  28  89 SE3       30.06S
ROCKFORD       PTCLDY    32  27  81 CALM      30.08R
PEORIA         CLEAR     32  24  72 S7        30.11R WCI  26
$$

NOTE: "FAIR" INDICATES FEW OR NO CLOUDS BELOW 12,000 FEET WITH NO
SIGNIFICANT WEATHER AND/OR OBSTRUCTIONS TO VISIBILITY. WIND
SPEEDS ARE IN MILES-PER-HOUR.




USA.gov is the U.S. government's official web portal to all federal, state and local government web resources and services.